Orbital Elements at Epoch 2459200.5 (2020-Dec-17.0) TDB
Reference: JPL 16 (heliocentric ecliptic J2000)
Element | Value | Uncertainty (1-sigma) | Units |
e | .2816161481604599 | 6.9173e-08 | |
a | 2.433696856030801 | 1.4963e-08 | au |
q | 1.748328521645185 | 1.6166e-07 | au |
i | 7.613833953888368 | 5.0859e-06 | deg |
node | 142.5726282757543 | 4.4424e-05 | deg |
peri | 246.4162604093943 | 4.5919e-05 | deg |
M | 238.804027602948 | 1.4857e-05 | deg |
tp | 2459667.356957294498 (2022-Mar-28.85695729) | 6.0664e-05 | TDB |
period | 1386.749916700263 3.80 | 1.2789e-05 3.501e-08 | d yr |
n | .2595997992605697 | 2.3942e-09 | deg/d |
Q | 3.119065190416416 | 1.9177e-08 | au |
|
| | Orbit Determination Parameters
Additional Information
|